Location: Squirrel Cove
(50.1074°N, 124.9139°W)
Time: 13:23:10
(UTC-07:00)

Envisat - Visible Passes

Search period start: 21 April 2024 00:00
Search period end: 01 May 2024 00:00
Orbit: 762 x 764 km, 98.3° (Epoch: 21 April)

Date Brightness Start Highest point End Pass type
(mag) Time Alt. Az. Time Alt. Az. Time Alt. Az.
21 Apr 5.8 03:05:33 10° ENE 03:05:59 10° E 03:06:24 10° E visible
21 Apr 3.3 04:40:51 10° NNE 04:45:56 68° ESE 04:50:59 10° S visible
22 Apr 4.5 04:03:49 10° NNE 04:08:25 33° E 04:12:59 10° SSE visible
23 Apr 5.4 03:27:26 10° NE 03:30:41 17° E 03:33:56 10° SE visible
23 Apr 3.0 05:05:10 10° NNE 05:10:16 77° WNW 05:15:20 10° SSW visible
24 Apr 3.7 04:27:53 10° NNE 04:32:53 53° E 04:37:50 10° S visible
25 Apr 4.8 03:51:01 10° NE 03:55:17 26° E 03:59:32 10° SSE visible
26 Apr 5.6 03:15:08 10° ENE 03:17:29 13° E 03:19:50 10° ESE visible
26 Apr 3.1 04:52:08 10° NNE 04:57:15 84° ESE 05:02:20 10° SSW visible
27 Apr 4.1 04:14:58 10° NNE 04:19:48 42° E 04:24:35 10° SSE visible
28 Apr 5.2 03:38:19 10° NE 03:42:08 21° E 03:45:56 10° SE visible
28 Apr 3.1 05:16:30 10° N 05:21:32 62° WNW 05:26:32 10° SSW visible
29 Apr 3.3 04:39:08 10° NNE 04:44:13 67° ESE 04:49:15 10° S visible
30 Apr 4.5 04:02:06 10° NNE 04:06:41 33° E 04:11:13 10° SSE visible
